CHINASAT 9A (ZX 9A)

Last updated on Tue Jul 06 2021 15:31:34 GMT+0000 (Coordinated Universal Time)

1 42763U 17035A 21186.76210984 .00000132 00000-0 00000-0 0 9999 2 42763 0.3531 97.6407 0005897 317.0803 0.9153 0.99783744 15522
UTC large
Height (km)
Speed (km/s)
/
Latitude / Longitude
Inclination (degrees)
Orbital Period (minutes)
Azimuth
Elevation
Range (km)
Doppler Factor

Next 0 passes for location: London (51.5072 / 0.1276)

Sorry there are no passes over London.